Miscellaneous Local Product
Issued by NWS North Platte, NE

Home | Current Version | Previous Version | Graphics & Text | Print | Product List | Glossary On
Versions: 1 2 3 4 5 6 7 8 9 10 11 12 13 14 15 16 17 18 19 20 21 22 23 24 25 26 27 28 29 30 31 32 33 34 35 36 37 38 39 40 41 42 43 44 45 46 47 48 49 50
000
AXUS43 KLBF 040710
MISLBF


WESTERN AND NORTH CENTRAL NEBRASKA HOURLY WEATHER ROUNDUP
NATIONAL WEATHER SERVICE NORTH PLATTE NE
200 AM CDT FRI SEP 04 2015

NOTE: "FAIR" INDICATES FEW OR NO CLOUDS BELOW 12,000 FEET WITH NO
SIGNIFICANT WEATHER AND/OR OBSTRUCTIONS TO VISIBILITY.

NOTE: STATIONS NOT REPORTING VARIABLES SUCH AS SKY/WEATHER OR
PRESSURE ARE PROVIDED BY THE NEBRASKA DEPARTMENT OF
ROADS...RAWS...AND APRS NETWORKS...AND ARE NOT UNDER
NATIONAL WEATHER SERVICE QUALITY CONTROL.

...OBSERVATIONS IN AND NEAR THE EASTERN PANHANDLE OF NEBRASKA...

CITY           SKY/WX    TMP DP  RH WIND       PRES   REMARKS
PINE RIDGE     LGT RAIN  68  57  68 NE6       29.83R
CHADRON        CLOUDY    71  56  58 S6        29.79F
ALLIANCE       CLOUDY    66  53  63 SE6       29.86S
SIDNEY         CLEAR     55  51  86 CALM      29.91S
CRESCENT LAKE    N/A     68  50  52 CALM        N/A
BIG SPRINGS      N/A     68  59  73 CALM        N/A
$$

...OBSERVATIONS IN NORTH CENTRAL NEBRASKA...

CITY           SKY/WX    TMP DP  RH WIND       PRES   REMARKS
VALENTINE      CLOUDY    75  61  61 SW12      29.80R THUNDER
THEDFORD       LGT RAIN  73  62  68 W17G29    29.84F
AINSWORTH      LGT RAIN  77  63  61 S12       29.78R
O`NEILL        MOCLDY    78  65  64 S9        29.79R
ORD            MOCLDY    76  63  64 SE5       29.79R
BROKEN BOW     CLOUDY    79  62  56 SW8       29.83R
SPRINGVIEW       N/A     72  67  83 CALM        N/A
SARGENT          N/A     73  64  73 CALM        N/A
CHAMBERS         N/A     75  64  68 S7          N/A
EWING            N/A     74  64  70 S3          N/A
$$

...OBSERVATIONS IN SOUTHWEST NEBRASKA AND FAR NORTHEAST COLORADO...

CITY           SKY/WX    TMP DP  RH WIND       PRES   REMARKS
WRAY           CLOUDY    64  60  86 SW3       29.87R
HOLYOKE        FAIR      70  54  56 NW7       29.86S
IMPERIAL       CLOUDY    68  63  84 CALM      29.82F
OGALLALA       CLOUDY    68  62  82 CALM      29.81R
NORTH PLATTE   CLOUDY    70  61  73 N5        29.78F
MCCOOK         MOCLDY    79  59  50 SE6       29.79F
LEXINGTON      CLOUDY    77  62  60 CALM      29.83R
PAXTON           N/A     67  63  86 CALM        N/A
BRADY            N/A     72  61  68 CALM        N/A
CALLAWAY         N/A     70  65  85 N3          N/A
$$

...OBSERVATIONS IN CENTRAL LINCOLN COUNTY AREA...

CITY           SKY/WX    TMP DP  RH WIND       PRES   REMARKS
N.P. AIRPORT   CLOUDY    70  61  73 N5        29.78F
N.P. DOWNTOWN    N/A     71  62  73 N3          N/A
N.P. SOUTHEAST   N/A     71  62  73 N3          N/A
N.P. HILLCREST   N/A     70  62  74 N12         N/A
$$

...SOME OBSERVATIONS FROM AROUND THE REGION...

CITY           SKY/WX    TMP DP  RH WIND       PRES   REMARKS
DENVER         PTCLDY    60  53  77 SW9       29.99S
LARAMIE        CLEAR     50  32  50 SW12      30.10F
CHEYENNE       CLEAR     56  44  64 W6        30.02S
SCOTTSBLUFF    PTCLDY    63  59  87 SE3       29.86F
RAPID CITY     CLOUDY    73  52  47 VRB3      29.76F
PIERRE         MOCLDY    75  70  84 SE6       29.68S
WINNER         FAIR      78  66  66 SE10      29.71F
SIOUX FALLS    PTCLDY    76  70  82 S10       29.81S
OMAHA          MOCLDY    77  68  73 S12       29.87R
GRAND ISLAND   MOCLDY    76  64  66 SE14      29.82S
KANSAS CITY    MOCLDY    73  67  81 S9        29.93S
WICHITA        CLOUDY    76  64  66 S9        29.90R
HAYS           MOCLDY    81  57  44 S14G21    29.83S
LIBERAL        PTCLDY    79  55  44 S17       29.90S
GOODLAND       MOCLDY    67  56  67 NW7       29.85F
$$



USA.gov is the U.S. government's official web portal to all federal, state and local government web resources and services.